Ionia, MI

3:49 AM EST on February 20, 2019 (GMT -0500)
Ionia

Weather History for KY70 - August, 2018

Change the Weather History Date:

Wednesday, August 29, 2018

  Actual Average (WUND) Record (WUND)
Temperature  
Mean Temperature 66 °F -  
Max Temperature 76 °F - - (-1)
Min Temperature 57 °F - - (-1)
Cooling Degree Days 2    
Growing Degree Days 16 (Base 50)    
Moisture  
Dew Point 62 °F    
Average Humidity 81    
Maximum Humidity 94    
Minimum Humidity 65    
Precipitation  
Precipitation 0.23 in - - ()
Sea Level Pressure  
Sea Level Pressure 30.00 in    
Wind  
Wind Speed 8 mph (WNW)    
Max Wind Speed 15 mph    
Max Gust Speed 25 mph    
Visibility 10 miles    
Events Rain    
Averages and records for this station are not official NWS values.
T = Trace of Precipitation, MM = Missing Value Source: NWS Daily Summary

Daily Weather History Graph

Daily Weather History Graph

Search for Another Location

Airport or City:

Astronomy

Aug. 29, 2018 Rise Set
Actual Time 7:01 AM EDT 8:19 PM EDT
Civil Twilight 6:32 AM EDT 8:49 PM EDT
Nautical Twilight 5:56 AM EDT 9:24 PM EDT
Astronomical Twilight 5:19 AM EDT 10:01 PM EDT
Moon 10:11 PM EDT (8/29) 9:57 AM EDT (8/29)
Length of Visible Light 14h 17m
Length of Day
13h 18m
Waning Gibbous, 90% of the Moon is Illuminated
Aug 29
Waning Gibbous
Sep 2
Last Quarter
Sep 9
New
Sep 16
First Quarter
Sep 24
Full

Hourly Weather History & Observations

Time (EDT) Temp. Dew Point Humidity Pressure Visibility Wind Dir Wind Speed Gust Speed Precip Events Conditions
12:37 AM 68.0 °F 66.2 °F 94% 29.93 in 7.0 mi South 8.1 mph - 0.03 in Rain Light Rain
1:15 AM 68.0 °F 66.2 °F 94% 29.92 in 10.0 mi SE 3.5 mph - N/A Rain Light Rain
1:55 AM 68.0 °F 66.2 °F 94% 29.98 in 10.0 mi West 6.9 mph - N/A Rain Light Rain
2:43 AM 68.0 °F 66.2 °F 94% 29.92 in 10.0 mi West 5.8 mph - N/A   Scattered Clouds
3:16 AM 66.2 °F 64.4 °F 94% 29.89 in 10.0 mi South 4.6 mph - 0.02 in   Scattered Clouds
3:56 AM 66.2 °F 64.4 °F 94% 29.88 in 10.0 mi SSW 8.1 mph - 0.02 in   Mostly Cloudy
4:31 AM 66.2 °F 64.4 °F 94% 29.86 in 10.0 mi South 9.2 mph - 0.02 in   Scattered Clouds
4:54 AM 66.2 °F 64.4 °F 94% 29.84 in 10.0 mi South 8.1 mph - 0.02 in   Mostly Cloudy
5:35 AM 66.2 °F 64.4 °F 94% 29.92 in 10.0 mi West 10.4 mph - 0.02 in   Mostly Cloudy
6:16 AM 66.2 °F 64.4 °F 94% 29.90 in 10.0 mi West 5.8 mph - N/A Rain Light Rain
6:54 AM 66.2 °F 64.4 °F 94% 29.91 in 10.0 mi West 5.8 mph - N/A   Scattered Clouds
7:16 AM 66.2 °F 64.4 °F 94% 29.93 in 10.0 mi WNW 4.6 mph - 0.02 in   Clear
7:53 AM 66.2 °F 64.4 °F 94% 29.93 in 10.0 mi Calm Calm - 0.02 in   Overcast
8:15 AM 68.0 °F 66.2 °F 94% 29.94 in 10.0 mi Calm Calm - 0.02 in   Overcast
8:56 AM 68.0 °F 66.2 °F 94% 29.95 in 10.0 mi SSW 5.8 mph - 0.02 in   Overcast
9:36 AM 69.8 °F 66.2 °F 88% 29.95 in 10.0 mi SW 5.8 mph - 0.02 in   Overcast
10:14 AM 71.6 °F 68.0 °F 88% 29.94 in 10.0 mi West 6.9 mph - 0.02 in   Mostly Cloudy
10:53 AM 73.4 °F 68.0 °F 83% 29.95 in 10.0 mi West 10.4 mph - 0.02 in   Overcast
11:15 AM 73.4 °F 66.2 °F 78% 29.95 in 10.0 mi West 11.5 mph 19.6 mph 0.02 in   Overcast
11:42 AM 73.4 °F 66.2 °F 78% 29.96 in 10.0 mi West 13.8 mph 18.4 mph 0.02 in   Overcast
11:55 AM 74.3 °F 66.4 °F 76% 29.96 in 10.0 mi West 13.8 mph 18.4 mph N/A   Overcast
12:15 PM 74.3 °F 65.8 °F 75% 29.96 in 10.0 mi West 11.5 mph 19.6 mph N/A   Overcast
12:35 PM 74.3 °F 64.9 °F 72% 29.97 in 10.0 mi West 15.0 mph 25.3 mph N/A   Overcast
12:55 PM 75.0 °F 66.0 °F 73% 29.97 in 10.0 mi West 12.7 mph 16.1 mph N/A   Overcast
1:15 PM 74.5 °F 66.0 °F 75% 29.98 in 10.0 mi West 13.8 mph 20.7 mph N/A   Overcast
1:35 PM 75.7 °F 65.5 °F 70% 29.98 in 10.0 mi West 13.8 mph 20.7 mph N/A   Overcast
1:55 PM 76.3 °F 64.9 °F 68% 29.98 in 10.0 mi West 12.7 mph - N/A   Overcast
2:15 PM 74.1 °F 64.4 °F 72% 29.99 in 10.0 mi WNW 15.0 mph - N/A   Overcast
2:35 PM 72.9 °F 65.8 °F 79% 29.99 in 10.0 mi WNW 10.4 mph - N/A Rain Light Rain
2:55 PM 71.1 °F 66.7 °F 86% 30.00 in 10.0 mi West 10.4 mph - N/A Rain Rain
3:15 PM 72.5 °F 67.3 °F 84% 30.00 in 10.0 mi West 9.2 mph - N/A   Overcast
3:35 PM 72.7 °F 64.9 °F 77% 30.00 in 10.0 mi West 10.4 mph - N/A   Overcast
3:55 PM 72.7 °F 64.2 °F 75% 30.00 in 10.0 mi West 10.4 mph - N/A   Overcast
4:15 PM 70.9 °F 64.8 °F 81% 30.01 in 5.0 mi NW 6.9 mph - N/A Rain Heavy Rain
4:35 PM 69.1 °F 66.7 °F 92% 30.01 in 3.0 mi West 9.2 mph - N/A Rain Light Rain
4:55 PM 70.9 °F 66.7 °F 87% 30.01 in 10.0 mi West 13.8 mph - N/A   Overcast
5:15 PM 71.1 °F 63.7 °F 77% 30.01 in 10.0 mi WNW 8.1 mph - 0.01 in   Mostly Cloudy
5:35 PM 71.1 °F 61.7 °F 72% 30.02 in 10.0 mi West 11.5 mph - 0.01 in   Mostly Cloudy
5:55 PM 71.4 °F 61.9 °F 72% 30.02 in 10.0 mi WNW 10.4 mph - 0.01 in   Scattered Clouds
6:15 PM 71.1 °F 61.9 °F 73% 30.03 in 10.0 mi West 8.1 mph - 0.01 in   Scattered Clouds
6:35 PM 71.1 °F 60.6 °F 69% 30.03 in 10.0 mi West 10.4 mph - 0.01 in   Mostly Cloudy
6:55 PM 70.7 °F 58.3 °F 65% 30.03 in 10.0 mi WNW 11.5 mph - 0.01 in   Mostly Cloudy
7:15 PM 69.1 °F 57.4 °F 66% 30.03 in 10.0 mi NW 11.5 mph - 0.01 in   Scattered Clouds
7:35 PM 67.6 °F 56.3 °F 67% 30.04 in 10.0 mi NW 4.6 mph - 0.01 in   Scattered Clouds
7:55 PM 66.6 °F 55.4 °F 67% 30.05 in 10.0 mi NW 5.8 mph - 0.01 in   Clear
8:15 PM 65.8 °F 55.4 °F 69% 30.06 in 10.0 mi NW 6.9 mph - 0.01 in   Clear
8:35 PM 64.2 °F 55.4 °F 73% 30.07 in 10.0 mi NNW 6.9 mph - 0.01 in   Clear
8:57 PM 63.5 °F 54.5 °F 72% 30.08 in 10.0 mi NW 10.4 mph - 0.01 in   Clear
9:15 PM 61.9 °F 52.9 °F 72% 30.10 in 10.0 mi NW 5.8 mph - 0.01 in   Clear
9:35 PM 61.2 °F 53.2 °F 75% 30.11 in 10.0 mi NNW 4.6 mph - 0.01 in   Clear
9:55 PM 60.4 °F 53.6 °F 78% 30.12 in 10.0 mi NNW 4.6 mph - 0.01 in   Clear
10:15 PM 59.9 °F 53.6 °F 80% 30.12 in 10.0 mi NNW 5.8 mph - 0.01 in   Clear
10:35 PM 59.2 °F 53.2 °F 81% 30.12 in 10.0 mi NNW 5.8 mph - 0.01 in   Clear
10:55 PM 58.6 °F 53.6 °F 83% 30.13 in 10.0 mi NNW 5.8 mph - 0.01 in   Clear
11:15 PM 58.3 °F 53.6 °F 84% 30.14 in 10.0 mi NNW 3.5 mph - 0.01 in   Clear
11:35 PM 57.9 °F 53.2 °F 84% 30.14 in 10.0 mi NNW 3.5 mph - 0.01 in   Clear
11:55 PM 57.4 °F 53.1 °F 85% 30.15 in 10.0 mi NNW 3.5 mph - 0.01 in   Clear